Time,TemperatureF,DewpointF,PressureIn,WindDirection,WindDirectionDegrees,WindSpeedMPH,WindSpeedGustMPH,Humidity,HourlyPrecipIn,Conditions,Clouds,dailyrainin,SolarRadiationWatts/m^2,SoftwareType,DateUTC
2013-01-01 00:24:00,42.1,30.0,29.93,WNW,288,5.0,18.0,62,0.00,,,0.00,0,weatherlink.com 1.10,2013-01-01 05:24:00,
2013-01-01 00:38:00,42.1,30.0,29.92,WNW,288,4.0,19.0,62,0.00,,,0.00,0,weatherlink.com 1.10,2013-01-01 05:38:00,
2013-01-01 00:53:00,42.1,30.0,29.92,SW,229,7.0,15.0,63,0.00,,,0.00,0,weatherlink.com 1.10,2013-01-01 05:53:00,
2013-01-01 01:09:00,42.0,30.0,29.92,West,265,6.0,17.0,63,0.00,,,0.00,0,weatherlink.com 1.10,2013-01-01 06:09:00,
2013-01-01 01:24:00,42.0,30.0,29.93,WNW,290,6.0,15.0,63,0.00,,,0.00,0,weatherlink.com 1.10,2013-01-01 06:24:00,
2013-01-01 01:39:00,41.8,30.0,29.93,NW,322,4.0,14.0,63,0.00,,,0.00,0,weatherlink.com 1.10,2013-01-01 06:39:00,
2013-01-01 01:54:00,41.7,30.0,29.93,West,281,4.0,12.0,64,0.00,,,0.00,0,weatherlink.com 1.10,2013-01-01 06:54:00,
2013-01-01 02:09:00,41.5,30.0,29.92,NW,306,5.0,13.0,65,0.00,,,0.00,0,weatherlink.com 1.10,2013-01-01 07:09:00,
2013-01-01 02:24:00,41.4,30.0,29.93,NW,309,5.0,11.0,65,0.00,,,0.00,0,weatherlink.com 1.10,2013-01-01 07:24:00,
2013-01-01 02:39:00,41.1,30.0,29.93,West,272,7.0,11.0,66,0.00,,,0.00,0,weatherlink.com 1.10,2013-01-01 07:39:00,
2013-01-01 02:53:00,41.2,31.0,29.93,WNW,287,4.0,9.0,66,0.00,,,0.00,0,weatherlink.com 1.10,2013-01-01 07:53:00,
2013-01-01 03:08:00,41.1,30.0,29.93,WSW,250,7.0,11.0,66,0.00,,,0.00,0,weatherlink.com 1.10,2013-01-01 08:08:00,
2013-01-01 03:23:00,41.0,31.0,29.93,West,271,4.0,10.0,67,0.00,,,0.00,0,weatherlink.com 1.10,2013-01-01 08:23:00,
2013-01-01 03:38:00,41.3,31.0,29.94,WSW,244,4.0,10.0,67,0.00,,,0.00,0,weatherlink.com 1.10,2013-01-01 08:38:00,
2013-01-01 03:53:00,41.3,31.0,29.93,West,261,0.0,11.0,67,0.00,,,0.00,0,weatherlink.com 1.10,2013-01-01 08:53:00,
2013-01-01 04:08:00,41.4,31.0,29.94,West,267,8.0,13.0,67,0.00,,,0.00,0,weatherlink.com 1.10,2013-01-01 09:08:00,
2013-01-01 04:23:00,41.7,31.0,29.93,WNW,282,5.0,16.0,67,0.00,,,0.00,0,weatherlink.com 1.10,2013-01-01 09:23:00,
2013-01-01 04:38:00,41.7,31.0,29.93,NW,304,6.0,12.0,67,0.00,,,0.00,0,weatherlink.com 1.10,2013-01-01 09:38:00,
2013-01-01 04:54:00,41.5,31.0,29.93,NW,312,5.0,12.0,67,0.00,,,0.00,0,weatherlink.com 1.10,2013-01-01 09:54:00,
2013-01-01 05:09:00,41.1,31.0,29.91,NW,310,7.0,9.0,68,0.00,,,0.00,0,weatherlink.com 1.10,2013-01-01 10:09:00,
2013-01-01 05:25:00,40.6,31.0,29.91,West,263,8.0,9.0,69,0.00,,,0.00,0,weatherlink.com 1.10,2013-01-01 10:25:00,
2013-01-01 05:39:00,40.4,31.0,29.92,WNW,291,2.0,8.0,70,0.00,,,0.00,0,weatherlink.com 1.10,2013-01-01 10:39:00,
2013-01-01 05:54:00,40.0,31.0,29.92,NW,320,5.0,8.0,70,0.00,,,0.00,0,weatherlink.com 1.10,2013-01-01 10:54:00,
2013-01-01 06:09:00,39.6,31.0,29.93,West,269,3.0,8.0,72,0.00,,,0.00,0,weatherlink.com 1.10,2013-01-01 11:09:00,
2013-01-01 06:24:00,39.5,31.0,29.94,WNW,293,3.0,9.0,72,0.00,,,0.00,0,weatherlink.com 1.10,2013-01-01 11:24:00,
2013-01-01 06:39:00,39.5,31.0,29.95,West,269,7.0,10.0,72,0.00,,,0.00,0,weatherlink.com 1.10,2013-01-01 11:39:00,
2013-01-01 06:54:00,39.6,31.0,29.95,WNW,300,6.0,10.0,72,0.00,,,0.00,0,weatherlink.com 1.10,2013-01-01 11:54:00,
2013-01-01 07:09:00,39.4,31.0,29.94,NW,310,0.0,8.0,73,0.00,,,0.00,0,weatherlink.com 1.10,2013-01-01 12:09:00,
2013-01-01 07:24:00,39.2,32.0,29.95,WNW,294,1.0,8.0,74,0.00,,,0.00,0,weatherlink.com 1.10,2013-01-01 12:24:00,
2013-01-01 07:39:00,39.0,31.0,29.95,WNW,288,3.0,8.0,74,0.00,,,0.00,18,weatherlink.com 1.10,2013-01-01 12:39:00,
2013-01-01 07:56:00,39.1,31.0,29.95,WNW,287,4.0,9.0,73,0.00,,,0.00,19,weatherlink.com 1.10,2013-01-01 12:56:00,
2013-01-01 08:09:00,39.2,31.0,29.95,WNW,296,4.0,10.0,73,0.00,,,0.00,40,weatherlink.com 1.10,2013-01-01 13:09:00,
2013-01-01 08:24:00,39.3,31.0,29.95,West,276,8.0,9.0,72,0.00,,,0.00,40,weatherlink.com 1.10,2013-01-01 13:24:00,
2013-01-01 08:39:00,39.5,31.0,29.95,WNW,292,2.0,8.0,72,0.00,,,0.00,42,weatherlink.com 1.10,2013-01-01 13:39:00,
2013-01-01 08:54:00,39.7,31.0,29.95,West,273,2.0,8.0,72,0.00,,,0.00,54,weatherlink.com 1.10,2013-01-01 13:54:00,
2013-01-01 09:09:00,39.8,31.0,29.95,West,279,6.0,8.0,72,0.00,,,0.00,49,weatherlink.com 1.10,2013-01-01 14:09:00,
2013-01-01 09:25:00,39.9,32.0,29.96,WNW,298,6.0,11.0,73,0.00,,,0.00,51,weatherlink.com 1.10,2013-01-01 14:25:00,
2013-01-01 09:39:00,40.1,31.0,29.96,West,264,4.0,12.0,71,0.00,,,0.00,62,weatherlink.com 1.10,2013-01-01 14:39:00,
2013-01-01 09:54:00,40.5,31.0,29.95,West,273,4.0,16.0,70,0.00,,,0.00,98,weatherlink.com 1.10,2013-01-01 14:54:00,
2013-01-01 10:09:00,40.8,31.0,29.95,NW,321,4.0,15.0,69,0.00,,,0.00,121,weatherlink.com 1.10,2013-01-01 15:09:00,
2013-01-01 10:25:00,41.2,31.0,29.95,West,277,7.0,10.0,68,0.00,,,0.00,102,weatherlink.com 1.10,2013-01-01 15:25:00,
2013-01-01 10:40:00,41.2,31.0,29.95,West,279,4.0,11.0,68,0.00,,,0.00,83,weatherlink.com 1.10,2013-01-01 15:40:00,
2013-01-01 10:54:00,41.3,31.0,29.94,WSW,242,6.0,14.0,67,0.00,,,0.00,84,weatherlink.com 1.10,2013-01-01 15:54:00,
2013-01-01 11:09:00,41.5,30.0,29.94,NW,317,5.0,11.0,65,0.00,,,0.00,113,weatherlink.com 1.10,2013-01-01 16:09:00,
2013-01-01 11:24:00,41.7,30.0,29.93,NW,313,4.0,14.0,64,0.00,,,0.00,121,weatherlink.com 1.10,2013-01-01 16:24:00,
2013-01-01 11:39:00,41.8,30.0,29.92,WNW,284,2.0,14.0,64,0.00,,,0.00,116,weatherlink.com 1.10,2013-01-01 16:39:00,
2013-01-01 11:54:00,41.7,30.0,29.92,WNW,302,13.0,21.0,63,0.00,,,0.00,120,weatherlink.com 1.10,2013-01-01 16:54:00,
2013-01-01 12:09:00,41.8,29.0,29.91,WSW,240,9.0,19.0,62,0.00,,,0.00,130,weatherlink.com 1.10,2013-01-01 17:09:00,
2013-01-01 12:25:00,41.6,30.0,29.90,WNW,293,7.0,21.0,63,0.00,,,0.00,98,weatherlink.com 1.10,2013-01-01 17:25:00,
2013-01-01 12:40:00,41.8,30.0,29.89,West,268,10.0,18.0,63,0.00,,,0.00,84,weatherlink.com 1.10,2013-01-01 17:40:00,
2013-01-01 12:56:00,41.5,30.0,29.89,West,277,3.0,20.0,63,0.00,,,0.00,76,weatherlink.com 1.10,2013-01-01 17:56:00,
2013-01-01 13:10:00,41.4,30.0,29.89,NW,305,11.0,18.0,64,0.00,,,0.00,58,weatherlink.com 1.10,2013-01-01 18:10:00,
2013-01-01 13:25:00,41.1,30.0,29.89,NW,324,5.0,20.0,64,0.00,,,0.00,51,weatherlink.com 1.10,2013-01-01 18:25:00,
2013-01-01 13:40:00,41.0,30.0,29.87,WNW,288,9.0,21.0,64,0.00,,,0.00,69,weatherlink.com 1.10,2013-01-01 18:40:00,
2013-01-01 13:56:00,40.9,30.0,29.87,WNW,296,9.0,14.0,65,0.00,,,0.00,58,weatherlink.com 1.10,2013-01-01 18:56:00,
2013-01-01 14:10:00,40.9,30.0,29.87,WNW,284,8.0,14.0,65,0.00,,,0.00,47,weatherlink.com 1.10,2013-01-01 19:10:00,
2013-01-01 14:25:00,40.8,30.0,29.87,WNW,296,2.0,13.0,65,0.00,,,0.00,40,weatherlink.com 1.10,2013-01-01 19:25:00,
2013-01-01 14:40:00,40.7,30.0,29.87,WNW,283,13.0,15.0,65,0.00,,,0.00,44,weatherlink.com 1.10,2013-01-01 19:40:00,
2013-01-01 14:55:00,40.7,30.0,29.87,West,279,10.0,16.0,65,0.00,,,0.00,62,weatherlink.com 1.10,2013-01-01 19:55:00,
2013-01-01 15:10:00,40.6,30.0,29.88,WNW,292,5.0,13.0,65,0.00,,,0.00,46,weatherlink.com 1.10,2013-01-01 20:10:00,
2013-01-01 15:28:00,40.5,30.0,29.89,NNW,346,5.0,16.0,66,0.00,,,0.00,30,weatherlink.com 1.10,2013-01-01 20:28:00,
2013-01-01 15:40:00,40.4,30.0,29.90,NW,325,4.0,15.0,66,0.00,,,0.00,21,weatherlink.com 1.10,2013-01-01 20:40:00,
2013-01-01 16:12:00,40.1,30.0,29.92,NNW,340,9.0,18.0,67,0.00,,,0.00,7,weatherlink.com 1.10,2013-01-01 21:12:00,
2013-01-01 16:25:00,39.0,31.0,29.92,North,355,6.0,15.0,72,0.00,,,0.00,0,weatherlink.com 1.10,2013-01-01 21:25:00,
2013-01-01 16:41:00,38.2,31.0,29.91,NW,316,7.0,12.0,76,0.00,,,0.00,0,weatherlink.com 1.10,2013-01-01 21:41:00,
2013-01-01 16:56:00,37.8,31.0,29.92,NNE,15,2.0,10.0,76,0.00,,,0.00,0,weatherlink.com 1.10,2013-01-01 21:56:00,
2013-01-01 17:11:00,37.8,30.0,29.93,WNW,285,5.0,10.0,74,0.00,,,0.00,0,weatherlink.com 1.10,2013-01-01 22:11:00,
2013-01-01 17:26:00,37.8,29.0,29.92,NNW,330,5.0,11.0,71,0.00,,,0.00,0,weatherlink.com 1.10,2013-01-01 22:26:00,
2013-01-01 17:41:00,37.9,29.0,29.93,West,281,9.0,11.0,69,0.00,,,0.00,0,weatherlink.com 1.10,2013-01-01 22:41:00,
2013-01-01 17:57:00,38.1,28.0,29.94,NNW,344,4.0,14.0,67,0.00,,,0.00,0,weatherlink.com 1.10,2013-01-01 22:57:00,
2013-01-01 18:11:00,38.0,28.0,29.94,WNW,299,6.0,11.0,67,0.00,,,0.00,0,weatherlink.com 1.10,2013-01-01 23:11:00,
2013-01-01 18:26:00,37.9,28.0,29.95,NW,311,5.0,10.0,68,0.00,,,0.00,0,weatherlink.com 1.10,2013-01-01 23:26:00,
2013-01-01 18:41:00,37.8,28.0,29.96,NNW,332,4.0,11.0,69,0.00,,,0.00,0,weatherlink.com 1.10,2013-01-01 23:41:00,
2013-01-01 18:57:00,37.6,29.0,29.97,NNW,345,4.0,8.0,71,0.00,,,0.00,0,weatherlink.com 1.10,2013-01-01 23:57:00,
2013-01-01 19:11:00,37.4,29.0,29.97,WNW,290,3.0,9.0,71,0.00,,,0.00,0,weatherlink.com 1.10,2013-01-02 00:11:00,
2013-01-01 19:40:00,36.6,27.0,29.98,NW,309,3.0,10.0,69,0.00,,,0.00,0,weatherlink.com 1.10,2013-01-02 00:40:00,
2013-01-01 19:55:00,36.2,26.0,29.98,NW,319,7.0,12.0,66,0.00,,,0.00,0,weatherlink.com 1.10,2013-01-02 00:55:00,
2013-01-01 20:11:00,35.6,24.0,29.98,North,350,6.0,13.0,63,0.00,,,0.00,0,weatherlink.com 1.10,2013-01-02 01:11:00,
2013-01-01 20:26:00,35.1,23.0,29.99,NW,317,5.0,10.0,62,0.00,,,0.00,0,weatherlink.com 1.10,2013-01-02 01:26:00,
2013-01-01 20:42:00,34.6,22.0,29.99,North,350,4.0,10.0,61,0.00,,,0.00,0,weatherlink.com 1.10,2013-01-02 01:42:00,
2013-01-01 20:56:00,34.3,20.0,29.98,West,281,4.0,11.0,56,0.00,,,0.00,0,weatherlink.com 1.10,2013-01-02 01:56:00,
2013-01-01 21:11:00,34.1,20.0,30.00,WSW,248,1.0,11.0,56,0.00,,,0.00,0,weatherlink.com 1.10,2013-01-02 02:11:00,
2013-01-01 21:26:00,33.6,20.0,30.00,North,5,3.0,8.0,58,0.00,,,0.00,0,weatherlink.com 1.10,2013-01-02 02:26:00,
2013-01-01 21:41:00,33.3,20.0,29.99,WNW,296,2.0,7.0,58,0.00,,,0.00,0,weatherlink.com 1.10,2013-01-02 02:41:00,
2013-01-01 21:56:00,33.0,20.0,30.00,NNW,332,5.0,8.0,59,0.00,,,0.00,0,weatherlink.com 1.10,2013-01-02 02:56:00,
2013-01-01 22:11:00,32.6,20.0,30.00,NNW,333,3.0,9.0,59,0.00,,,0.00,0,weatherlink.com 1.10,2013-01-02 03:11:00,
2013-01-01 22:26:00,32.6,19.0,30.02,NW,326,3.0,11.0,57,0.00,,,0.00,0,weatherlink.com 1.10,2013-01-02 03:26:00,
2013-01-01 22:41:00,32.3,18.0,30.02,NNW,327,3.0,8.0,57,0.00,,,0.00,0,weatherlink.com 1.10,2013-01-02 03:41:00,
2013-01-01 22:56:00,32.1,19.0,30.02,NNW,336,1.0,10.0,58,0.00,,,0.00,0,weatherlink.com 1.10,2013-01-02 03:56:00,
2013-01-01 23:12:00,32.0,19.0,30.03,NNW,331,7.0,11.0,58,0.00,,,0.00,0,weatherlink.com 1.10,2013-01-02 04:12:00,
2013-01-01 23:28:00,31.7,19.0,30.04,NNW,329,7.0,13.0,59,0.00,,,0.00,0,weatherlink.com 1.10,2013-01-02 04:28:00,
2013-01-01 23:41:00,31.3,19.0,30.03,NNW,337,7.0,12.0,60,0.00,,,0.00,0,weatherlink.com 1.10,2013-01-02 04:41:00,
2013-01-01 23:57:00,30.6,18.0,30.03,NE,36,6.0,11.0,61,0.00,,,0.00,0,weatherlink.com 1.10,2013-01-02 04:57:00,